星链-30174 (STARLINK-30174 )

导读

STARLINK-30174是美国太空探索技术公司SpaceX星链星座中的一颗卫星,于2023年8月11日发射入轨,属于星链互联网卫星项目的组网卫星,承担着为全球范围提供低延迟、高速率卫星互联网接入服务的任务,是SpaceX大规模构建全球卫星互联网星座进程中的组成部分。

基本信息
目录编号:
57609
目录名称:
STARLINK-30174
国际标识:
2023-119H
轨道中心:
EARTH
卫星名称:
星链-30174
卫星全名:
星链-30174 (STARLINK-30174 )
卫星状态:
在轨 (已飞行1042 天)
发射日期:
2023-08-11 UTC
国别 :
美国 (US)
星等 :
--
轨道信息
数据来源 国际轨道数据
星历时间: 2026-06-18T13:07:44+0800
8小时前
查看轨道信息
半长轴: 6861.197km
偏心率: 0.0001103
轨道倾角: 42.998°
近地点辐角 272.913°
升交点赤经 233.579°
平近点角 87.159°
近地点: 482.303km
远地点: 483.817km
周期: 94.267分钟
每日圈数: 15.275766
详细信息
固有亮度:
5
最大亮度:
0.3
卫星平台:
Starlink v2.0 mini
覆盖范围:
全球
运营商:
太空探索技术公司
运营商所在国:
美国
制造商(研发单位):
太空探索技术公司
制造商所在国:
美国
使用方式:
暂无
卫星简介
星链(Starlink)计划是由太空探索技术公司(SpaceX)提出的一个巨型低轨卫星互联网星座项目,计划在2019年至2024年间在太空搭建由约1.2万颗卫星组成的“星链”网络,其中1584颗将部署在地球上空550千米处的近地轨道,并从2020年开始工作。该卫星仍在工作。
2D轨道图
3D轨道图
轨道高度分析图
轨道倾角分析图
轨道综合分析图
查看轨道综合分析图